Date,TemperatureHighF,TemperatureAvgF,TemperatureLowF,DewpointHighF,DewpointAvgF,DewpointLowF,HumidityHigh,HumidityAvg,HumidityLow,PressureMaxIn,PressureMinIn,WindSpeedMaxMPH,WindSpeedAvgMPH,GustSpeedMaxMPH,PrecipitationSumIn
2013-7-1,77.4,68.8,60.0,61.0,57.2,53.0,94,69,45,30.05,29.97,19,6,21,0.00
2013-7-2,77.8,67.5,58.3,57.0,54.1,52.0,85,64,43,30.10,30.02,18,5,21,0.00
2013-7-3,83.1,70.0,56.1,60.0,56.7,54.0,91,66,38,30.13,30.03,11,3,15,0.00
2013-7-4,83.7,71.0,58.8,64.0,58.8,55.0,91,68,41,30.09,29.99,8,2,12,0.00
2013-7-5,87.4,75.0,61.7,64.0,60.1,57.0,85,63,37,30.07,29.97,8,3,13,0.00
2013-7-6,89.8,75.1,64.8,68.0,63.4,59.0,91,70,36,30.04,29.95,9,3,15,0.00
2013-7-7,91.9,78.9,66.9,71.0,65.2,62.0,89,66,38,30.06,29.99,9,3,13,0.00
2013-7-8,91.4,78.9,69.8,73.0,68.7,65.0,89,72,45,30.10,30.03,15,3,17,0.00
2013-7-9,94.7,82.6,71.7,74.0,70.4,67.0,86,68,45,30.08,29.95,12,4,21,0.00
2013-7-10,91.7,80.4,71.2,77.0,71.9,69.0,95,77,48,30.03,29.92,12,4,20,0.17
2013-7-11,87.0,77.7,69.2,74.0,65.9,58.0,94,70,38,30.04,29.98,10,5,15,0.00
2013-7-12,86.9,73.5,63.6,63.0,58.2,52.0,83,62,31,30.10,30.02,11,-7,15,0.00
2013-7-13,82.5,72.5,61.2,64.0,59.4,55.0,84,65,44,30.09,29.98,8,4,12,0.00
2013-7-14,86.6,75.2,63.7,64.0,60.7,56.0,88,63,36,30.11,30.02,11,5,17,0.00
2013-7-15,88.2,75.8,66.3,71.0,67.2,63.0,95,76,49,30.20,30.10,11,4,14,0.00
2013-7-16,89.5,76.6,69.5,74.0,70.8,68.0,98,84,50,30.30,30.19,7,3,14,0.03
2013-7-17,91.7,80.2,70.4,73.0,69.8,67.0,94,72,46,30.35,30.20,9,2,14,0.00
2013-7-18,96.7,82.6,71.1,77.0,68.8,66.0,85,65,37,30.23,30.03,7,2,14,0.19
2013-7-19,93.4,79.8,70.5,72.0,69.2,67.0,90,72,46,30.04,29.92,8,3,12,0.00
2013-7-20,93.0,76.4,69.4,74.0,69.2,66.0,93,80,46,29.96,29.86,18,5,29,0.97
2013-7-21,81.5,72.8,68.9,72.0,69.5,68.0,97,90,68,29.96,29.88,6,2,12,0.39
2013-7-22,87.0,76.3,66.9,73.0,68.9,66.0,99,80,54,29.93,29.84,21,6,24,0.16
2013-7-23,92.8,78.9,68.8,78.0,72.2,67.0,95,81,60,29.90,29.80,14,5,24,0.26
2013-7-24,84.1,74.5,67.6,70.0,65.9,59.0,96,76,43,30.05,29.88,10,4,13,0.00
2013-7-25,82.9,72.9,61.5,65.0,61.0,57.0,88,68,45,30.14,30.05,8,2,11,0.00
2013-7-26,70.6,68.1,64.9,68.0,65.3,62.0,98,91,75,30.08,30.02,6,2,11,0.80
2013-7-27,74.9,67.9,61.2,65.0,60.4,56.0,99,79,55,30.10,30.01,11,4,15,0.00
2013-7-28,72.8,65.5,57.9,65.0,59.9,56.0,94,83,65,30.11,30.04,7,2,11,0.00
2013-7-29,79.0,69.9,63.5,72.0,66.5,62.0,95,89,78,30.15,30.06,10,4,14,0.05
2013-7-30,81.0,73.9,69.0,75.0,71.5,68.0,98,92,79,30.09,30.01,12,4,21,2.10
2013-7-31,84.4,76.5,69.9,74.0,71.2,67.0,99,85,60,30.09,30.01,11,3,15,0.00